Location: Nirvana
(45.0297°N, 77.2628°W)
Time: 10:00:06
(UTC-05:00)

Envisat - Pass Details

Date: 27 October 2019
Orbit: 764 x 766 km, 98.1° (Epoch: 14 November)

Event Time Altitude Azimuth Distance (km) Brightness Sun altitude
Rises 19:09:35 0° 167° (SSE) 3,218 6.2 -12.0°
Reaches altitude 10° 19:11:53 10° 168° (SSE) 2,296 5.4 -12.4°
Maximum altitude 19:16:57 84° 257° (WSW) 776 3.1 -13.3°
Drops below altitude 10° 19:22:04 10° 345° (NNW) 2,312 5.6 -14.2°
Sets 19:24:23 0° 347° (NNW) 3,242 6.4 -14.6°
